Погода в Морщихинской

Россия / Архангельская область     61°46′15″N   38°02′43″E
темп.,
°C
ветер,
м/с
пор.,
м/с
влажн.,
%
обл.,
%
осадки,
мм/ч
давл.,
гПа
погр.,
м
13 мая, чт
чт1300:00+14ююв22660 0.0 102230
03:00+12ю22762 0.0 102225
06:00+14ююв25713 0.0 1020118
09:00+20ююв25518 0.0 1020424
12:00+25ююв47386 0.0 10182367
15:00+24ююв464044 0.0 10171547
18:00+22ююв375042 0.0 1016749
21:00+17вюв22750 0.0 101513
14 мая, пт
пт1400:00+14в25910 0.3 101398
03:00+14юв2109299 0.6 1012427
06:00+14ю5108799 0.0 1012830
09:00+16ююз586534 0.1 10131258
12:00+19ююз57435 0.0 10142063
15:00+19ююз573999 0.0 10142496
18:00+18ююз464682 0.0 10131461
21:00+14ююз276390 0.0 1014292
15 мая, сб
сб1500:00+11ю25805 0.0 1015110
03:00+10ююв2284100 0.0 101450
06:00+12юв2778100 0.0 1013203
09:00+14юв3670100 0.0 1012453
12:00+14в3581100 0.9 1011569
15:00+15всв347845 0.9 1011619
18:00+15св348197 0.0 1008588
21:00+12всв3797100 0.0 1008311
16 мая, вс
вс1600:00+11св3898100 0.0 1007276
03:00+11св3897100 0.1 1007311
06:00+11св388899 0.1 1007365
09:00+14св477095 0.1 1007708
12:00+19св3551100 0.0 10081625
15:00+17ссв2561100 0.1 1009193
18:00+16св1266100 0.0 101076
21:00+13ссв247723 0.0 101181
17 мая, пн
пн1700:00+10св259115 0.0 101286
03:00+9св2296100 0.0 101449
06:00+11св128615 0.0 1014142
09:00+17в116412 0.1 1015729
12:00+18в115951 0.9 10161100
15:00+20вюв215564 1.4 10161325
18:00+18в236274 0.1 1016339
21:00+15вюв257780 0.3 1017121